Regional Weather Roundup
Issued by NWS

Home | Current Version | Previous Version | Text Only | Print | Product List | Glossary On
Versions: 1 2 3 4 5 6 7 8 9 10 11 12 13 14 15 16 17 18 19 20 21 22 23 24 25 26 27 28
000
ASUS44 KBMX 250910
RWRAL

ALABAMA REGIONAL WEATHER ROUNDUP
NATIONAL WEATHER SERVICE BIRMINGHAM AL
400 AM CDT SAT OCT 25 2014

NOTE: "FAIR" INDICATES FEW OR NO CLOUDS BELOW 12,000 FEET
WITH NO SIGNIFICANT WEATHER AND/OR OBSTRUCTIONS TO VISIBILITY.

THE REMARK "TC" DENOTES TEMPERATURE IN DEGREES CELSIUS.

ALZ001>011-014-016>018-020-251000-
NORTH ALABAMA

CITY           SKY/WX    TMP DP  RH WIND       PRES   REMARKS
MUSCLE SHOALS  CLEAR     45  41  86 CALM      30.10F
HUNTSVILLE     CLEAR     46  42  86 CALM      30.09S
DECATUR        CLEAR     45  43  93 CALM      30.09F
HALEYVILLE     FAIR      43  43 100 CALM      30.11F
GADSDEN        CLEAR     43  37  81 CALM      30.08R
$$

ALZ012-013-022-023-030>036-040>044-251000-
WEST CENTRAL ALABAMA

CITY           SKY/WX    TMP DP  RH WIND       PRES   REMARKS
TUSCALOOSA     CLEAR     47  44  90 CALM      30.10R
$$

ALZ015-024>027-033>036-040>044-251000-
CENTRAL ALABAMA

CITY           SKY/WX    TMP DP  RH WIND       PRES   REMARKS
BIRMINGHAM     CLEAR     46  42  86 CALM      30.10R
MONTGOMERY     CLEAR     45  42  89 CALM      30.06R
SHELBY CO ARPT CLEAR     49  46  90 CALM      30.07S
MAXWELL AFB    CLEAR     45  45 100 W3        30.05S
GREENVILLE     FAIR      48  42  80 N6        30.05R
$$

ALZ019-021-028-029-037-038-045>048-251000-
EAST CENTRAL ALABAMA

CITY           SKY/WX    TMP DP  RH WIND       PRES   REMARKS
ANNISTON       CLEAR     40  39  97 CALM      30.07S
ALEXANDER CITY CLEAR     44  42  93 CALM      30.05S
AUBURN         CLEAR     46  39  76 N6        30.06S
$$

ALZ051>064-251000-
SOUTHWEST ALABAMA

CITY           SKY/WX    TMP DP  RH WIND       PRES   REMARKS
MOBILE         CLEAR     51  45  79 N3        30.08S
BROOKLEY FIELD CLEAR     49  46  90 CALM      30.08F
EVERGREEN      CLEAR     49  45  86 NW5       30.06S
$$

ALZ049-050-065>069-251000-
SOUTHEAST ALABAMA

CITY           SKY/WX    TMP DP  RH WIND       PRES   REMARKS
DOTHAN         CLEAR     49  44  83 NW6       30.04F
OZARK          CLEAR     49  44  84 NW6       30.02S
TROY           CLEAR     42  39  89 CALM      30.04S
EUFAULA        FAIR      43  41  93 CALM      30.01S
$$



USA.gov is the U.S. government's official web portal to all federal, state and local government web resources and services.